www.pogodaiklimat.ru

Погода и климат >> Архив погоды >> Кабо-Верде >> Сал


ПОГОДА в Сале

  • Прогноз погоды в Сале
  • Монитор погоды в Сале

АРХИВ ПОГОДЫ в Сале

Время (UTC), дата Ветер
(напр.,м/с)
 
Видим.   Явления Облачность Т
(С)
Тd
(С)
f
(%)
Тe
(С)
Тes
(С)
Комфортность P
(гПа)
Po
(гПа)
Тmin
(С)
Tmax
(С)
R
(мм)
R24
(мм)
S
(см)
00 11.06 СВ 7 7000 м пыль 6/6 400 м
[Cu med, cong Ac trans]
+23.1 +20.1 83 +30 +30 очень
душно
1016.5 1010.3
06 11.06 СВ 5 7000 м дымка 6/6 420 м
[Cu med, cong]
+21.8 +19.7 88 +27 +27 душно 1014.1 1007.9 +19.5
12 11.06 СВ 7 10 км 4/4 420 м
[Cu med, cong]
+25.4 +20.0 72 +31 +35 очень
душно
1015.2 1009.1
18 11.06 СВ 8 10 км 5/5 420 м
[Cu med, cong]
+25.1 +19.0 69 +30 +31 душно 1013.8 1007.7 +26.7
00 12.06 СВ 8 10 км 5/5 420 м
[Cu med, cong]
+22.0 +18.8 82 +27 +27 душно 1015.7 1009.5
06 12.06 СВ 4 10 км 5/5 420 м
[Cu med, cong]
+21.7 +18.1 80 +26 +26 душно 1014.3 1008.1 +19.5
12 12.06 СВ 6 18 км 4/4 420 м
[Sc]
+25.4 +17.6 62 +30 +34 душно 1015.9 1009.8
18 12.06 СВ 6 18 км 8/8 420 м
[Cu med, cong]
+24.4 +17.4 65 +28 +29 душно 1014.3 1008.1 +26.5
00 13.06 СВ 4 18 км 9/9 420 м
[Cu med, cong]
+22.9 +18.2 75 +29 +29 очень
душно
1017.1 1010.9
06 13.06 СВ 3 15 км 9/9 420 м
[Cu med, cong]
+22.8 +18.1 75 +28 +28 душно 1016.0 1009.8 +20.4
12 13.06 СВ 6 25 км 6/6 420 м
[Cu med, cong]
+25.2 +17.9 64 +30 +33 душно 1017.4 1011.2
18 13.06 СВ 7 20 км 9/9 420 м
[Cu med, cong]
+24.9 +18.4 67 +29 +30 душно 1015.9 1009.7 +26.6
00 14.06 В 3 18 км 5/5 420 м
[Cu med, cong Ci fib]
+21.3 +18.5 84 +26 +26 душно 1018.0 1011.8
06 14.06 СВ 4 18 км 9/9 420 м
[Cu med, cong]
+22.4 +18.0 76 +27 +27 душно 1016.6 1010.4 +19.5
12 14.06 СВ 5 20 км 8/8 420 м
[Cu med, cong]
+25.3 +18.7 67 +30 +32 душно 1018.5 1012.3
18 14.06 СВ 6 25 км 8/8 420 м
[Cu med, cong Ci fib]
+24.9 +18.6 68 +30 +30 душно 1016.8 1010.6 +26.2
00 15.06 СВ 4 15 км 6/4 420 м
[Cu med, cong Ci fib]
+22.5 +18.7 79 +28 +28 душно 1018.9 1012.7
06 15.06 СВ 6 15 км 9/9 420 м
[Cu med, cong]
+22.2 +18.2 78 +27 +27 душно 1017.2 1011.0 +19.8
12 15.06 СВ 7 20 км 5/3 420 м
[Cu med, cong Ci sp]
+25.0 +17.7 64 +29 +32 душно 1018.5 1012.3
18 15.06 СВ 7 20 км 9/3 420 м
[Cu med, cong Ci fib]
+25.0 +20.0 74 +31 +31 очень
душно
1016.4 1010.2 +26.2
00 16.06 СВ 5 15 км 9/6 420 м
[Cu med, cong Ci fib]
+23.0 +19.6 81 +30 +30 очень
душно
1018.4 1012.2
06 16.06 СВ 7 15 км н/о +21.8 +19.0 84 +27 +27 душно 1016.3 1010.1 +19.8
12 16.06 СВ 9 18 км 8/4 420 м
[Cu med, cong Ci fib]
+25.0 +19.8 73 +31 +32 очень
душно
1018.5 1012.3
18 16.06 СВ 8 15 км 4/1 420 м
[Sc Ac trans Ci fib]
+25.6 +19.5 69 +31 +32 очень
душно
1016.6 1010.5 +26.9
00 17.06 СВ 7 12 км 8/1 420 м
[Sc Ac trans Cc]
+22.2 +19.2 83 +28 +28 душно 1018.0 1011.8
12 17.06 СВ 10 15 км 3/3 400 м
[Sc]
+28.5 +17.3 51 +33 +33 очень
душно
1017.0 1010.9
18 17.06 СВ 10 15 км 3/3 400 м
[Sc]
+27.0 +18.0 58 +32 +32 очень
душно
1015.3 1009.2 +28.8

 

Местоположение метеостанции Сал (Кабо-Верде): широта 16.73 долгота -22.95 высота над уровнем моря 53 м.

В архиве по умолчанию представлена погода в Сале за последнюю неделю. Архивные данные за месяц целиком и за предыдущие месяцы, начиная с января 2011 года, Вы можете получить, выбрав интересующий диапазон дат из раскрывающегося списка и нажав кнопку "Ввод!".


*Определитесь, кто Вы:
робот инопланетянин человек

Внимание! Время в таблицах - всемирное. Для получения местного времени необходимо прибавить поправку, которая равна -1 ч.

Смотрите также архив погоды в соседних городах и на ближайших метеорологических станциях:

Погода в Прае (Кабо-Верде) (212 км)
Погода в Минделу (Кабо-Верде) (219 км)
Погода в Дакаре (Сенегал) (624 км)
Погода в Сент-Луисе (Сенегал) (698 км)
Погода в Диурбеле (Сенегал) (756 км)
Погода в Нуакшоте (Мавритания) (758 км)
Погода в Росо (Мавритания) (761 км)
Погода в Банжуле (Гамбия) (775 км)
Погода в Нуадибу (Мавритания) (779 км)
Погода в Банжуле Half-Die (Гамбия) (788 км)

Пояснения к столбцам:

Ветер - указаны скорость ветра в м/с - средняя за 10 мин, порывы в срок и между сроками (в фигурных скобках) и направление, откуда дует ветер: С - северный, СВ - северо-восточный, В - восточный, ЮВ - юго-восточный, Ю - южный, ЮЗ - юго-западный, З - западный, СЗ - северо-западный.
Видимость - горизонтальная дальность видимости в метрах или километрах. При видимости от 1 до 10 км при отсутствии осадков обычно наблюдается дымка, при ухудшении видимости до 1 км и менее - туман. В сухую погоду видимость может ухудшаться дымом, пылью или мглою.
Явления - указаны атмосферные явления, наблюдавшиеся в срок или в последний час перед сроком; фигурными скобками обозначены явления, наблюдавшиеся между сроками (за 1-3 часа до срока); квадратными скобками обозначены град или гололедные отложения с указанием их диаметра в мм.
Облачность - указаны через наклонную черту общая и нижняя облачность в баллах и высота нижней границы облаков в метрах; квадратными скобками обозначены формы облаков: Ci - перистые, Cs - перисто-слоистые, Cc - перисто-кучевые, Ac - высококучевые, As - высокослоистые, Sc - слоисто-кучевые, Ns - слоисто-дождевые, Cu - кучевые, Cb - кучево-дождевые. Подробнее классификацию облаков см. в Атласе облаков (PDF).
T - Температура воздуха - температура, измеренная на высоте 2 м над землей.
Td - Температура точки росы - температура, при понижении до которой содержащийся в воздухе водяной пар достигнет насыщения.
f - Относительная влажность воздуха - влажноcть воздуха, измеренная на высоте 2 м над землей.
Te - Эффективная температура - температура, которую ощущает одетый по сезону человек в тени. Характеристика душности погоды. При расчете учитывается влияние влажности воздуха и скорости ветра на теплоощущения человека.
Tes - Эффективная температура на солнце - температура, которую ощущает человек, с поправкой на солнечный нагрев. Характеристика знойности погоды. Зависит от высоты солнца над горизонтом, облачности и скорости ветра. Ночью, в пасмурную погоду, а также при ветре 12 м/с и более поправка равна нулю.
P - Атмосферное давление - приведенное к уровню моря атмосферное давление.
Po - Атмосферное давление - измеренное на уровне метеостанции атмосферное давление.
Tmin - Минимальная температура - минимум температуры воздуха на высоте 2 м над землей.
Tmax - Максимальная температура - максимум температуры воздуха на высоте 2 м над землей.
R - Количество осадков - Количество выпавших осадков за период времени, мм. При наведении курсора мыши на число - период времени, за который выпало указанное количество осадков.
R24 - Количество осадков - Количество выпавших осадков за 24 часа, мм.
S - Снежный покров - Высота снежного покрова, см. При наведении курсора мыши на число - состояние снежного покрова и степень покрытия местности в баллах.